Location: Musselshell
(46.5176°N, 108.0911°W)
Time: 00:08:10
(UTC+00:00)

M-CUBED/EXP-1 PRIME - Visible Passes

Search period start: 28 June 2022 00:00
Search period end: 08 July 2022 00:00
Orbit: 423 x 634 km, 101.7° (Epoch: 27 June)

Date Brightness Start Highest point End Pass type
(mag) Time Alt. Az. Time Alt. Az. Time Alt. Az.
28 Jun ? 07:05:16 11° E 07:06:55 15° ENE 07:08:50 10° NNE visible
28 Jun ? 08:40:31 37° WSW 08:40:31 37° WSW 08:43:36 10° NW visible
29 Jun ? 06:55:06 10° ENE 06:56:02 11° NE 06:56:58 10° NE visible
29 Jun ? 08:29:16 56° WSW 08:29:27 57° WSW 08:32:43 10° NNW visible
30 Jun ? 08:18:01 68° SSE 08:18:24 88° WSW 08:21:45 10° NNW visible
01 Jul ? 08:06:45 49° ESE 08:07:22 61° ENE 08:10:41 10° NNW visible
02 Jul ? 07:55:28 33° ESE 07:56:20 41° ENE 07:59:33 10° N visible
02 Jul ? 09:30:43 12° W 09:30:43 12° W 09:32:00 10° WNW visible
03 Jul ? 07:44:10 23° E 07:45:20 29° ENE 07:48:20 10° N visible
03 Jul ? 09:19:25 18° W 09:19:25 18° W 09:21:41 10° NW visible
04 Jul ? 07:32:52 16° E 07:34:21 21° ENE 07:37:00 10° N visible
04 Jul ? 09:08:06 25° WSW 09:08:07 25° WSW 09:11:01 10° NW visible
05 Jul ? 07:21:32 11° E 07:23:22 16° ENE 07:25:32 10° NNE visible
05 Jul ? 08:56:47 37° WSW 08:56:57 37° WSW 09:00:10 10° NW visible
06 Jul ? 07:11:02 10° ENE 07:12:24 12° NE 07:13:48 10° NNE visible
06 Jul ? 08:45:26 53° SW 08:45:47 56° WSW 08:49:12 10° NNW visible
07 Jul ? 08:34:05 60° SSE 08:34:39 85° WSW 08:38:09 10° NNW visible
